South St. Paul, MN

4:45 PM CDT on April 24, 2018 (GMT -0500)
South Saint Paul Municipal-Fleming

Weather History for KSGS - February, 2014

Change the Weather History Date:

Friday, February 21, 2014

  Actual Average (KSTP) Record (KSTP)
Temperature  
Mean Temperature 15 °F -  
Max Temperature 20 °F 30 °F 61 °F (2017)
Min Temperature 10 °F 16 °F -6 °F (2001)
Degree Days  
Heating Degree Days 50    
Moisture  
Dew Point 9 °F    
Average Humidity 74    
Maximum Humidity 85    
Minimum Humidity 68    
Precipitation  
Precipitation 0.00 in - - ()
Sea Level Pressure  
Sea Level Pressure 29.53 in    
Wind  
Wind Speed 13 mph (West)    
Max Wind Speed 18 mph    
Max Gust Speed 28 mph    
Averages and records for this station are not official NWS values.
T = Trace of Precipitation, MM = Missing Value Source: NWS Daily Summary

Daily Weather History Graph

Daily Weather History Graph

Search for Another Location

Airport or City:

Astronomy

Feb. 21, 2014 Rise Set
Actual Time 7:03 AM CST 5:48 PM CST
Civil Twilight 6:33 AM CST 6:18 PM CST
Nautical Twilight 5:59 AM CST 6:52 PM CST
Astronomical Twilight 5:25 AM CST 7:26 PM CST
Moon No Moon Rise 10:10 AM CST (2/21)
Length of Visible Light 11h 45m
Length of Day
10h 45m
Waning Gibbous, 60% of the Moon is Illuminated
Feb 21
Waning Gibbous
Feb 22
Last Quarter
Mar 1
New
Mar 8
First Quarter
Mar 16
Full

Hourly Weather History & Observations

Time (CST) Temp. Windchill Dew Point Humidity Pressure Visibility Wind Dir Wind Speed Gust Speed Precip Events Conditions
12:12 AM 20.3 °F 9.0 °F 16.3 °F 85% 29.28 in - WNW 10.4 mph 25.3 mph N/A   Overcast
12:32 AM 19.4 °F 7.9 °F 14.9 °F 83% 29.29 in - WNW 10.4 mph 18.4 mph N/A   Overcast
12:52 AM 18.9 °F 5.3 °F 14.5 °F 83% 29.29 in - WNW 13.8 mph 20.7 mph N/A   Overcast
1:12 AM 18.1 °F 2.4 °F 13.5 °F 82% 29.29 in - WNW 18.4 mph 25.3 mph N/A   Overcast
1:32 AM 18.1 °F 2.9 °F 13.3 °F 81% 29.29 in - WNW 17.3 mph 24.2 mph N/A   Overcast
1:52 AM 17.6 °F 4.3 °F 13.1 °F 83% 29.30 in - WNW 12.7 mph 21.9 mph N/A   Overcast
2:12 AM 17.6 °F 4.3 °F 13.1 °F 83% 29.31 in - WNW 12.7 mph 18.4 mph N/A   Overcast
2:32 AM 17.1 °F 2.0 °F 12.2 °F 81% 29.31 in - WNW 16.1 mph 21.9 mph N/A   Overcast
2:52 AM 16.7 °F 2.0 °F 12.0 °F 82% 29.31 in - WNW 15.0 mph 19.6 mph N/A   Overcast
3:12 AM 16.3 °F 1.6 °F 11.3 °F 81% 29.32 in - WNW 15.0 mph 23.0 mph N/A   Unknown
3:32 AM 15.8 °F 0.9 °F 11.1 °F 82% 29.33 in - WNW 15.0 mph 25.3 mph N/A   Overcast
3:52 AM 15.4 °F 0.4 °F 10.6 °F 81% 29.34 in - WNW 15.0 mph 20.7 mph N/A   Overcast
4:12 AM 14.9 °F 1.6 °F 10.0 °F 81% 29.35 in - West 11.5 mph 21.9 mph N/A   Overcast
4:32 AM 14.0 °F -2.0 °F 8.6 °F 79% 29.36 in - West 16.1 mph 24.2 mph N/A   Overcast
4:52 AM 13.8 °F 0.2 °F 8.4 °F 79% 29.37 in - WNW 11.5 mph 18.4 mph N/A   Overcast
5:12 AM 13.1 °F -2.6 °F 7.5 °F 78% 29.37 in - WNW 15.0 mph 20.7 mph N/A   Overcast
5:32 AM 12.9 °F -0.2 °F 7.2 °F 78% 29.38 in - WNW 10.4 mph 24.2 mph N/A   Overcast
5:52 AM 12.7 °F -0.4 °F 7.0 °F 78% 29.39 in - West 10.4 mph 20.7 mph N/A   Overcast
6:12 AM 12.6 °F -0.6 °F 6.6 °F 77% 29.39 in - West 10.4 mph 18.4 mph N/A   Unknown
6:32 AM 12.0 °F -1.3 °F 5.9 °F 76% 29.40 in - West 10.4 mph 21.9 mph N/A   Unknown
6:52 AM 11.3 °F -3.6 °F 5.4 °F 77% 29.41 in - West 12.7 mph 17.3 mph N/A   Scattered Clouds
7:12 AM 11.3 °F -3.6 °F 4.8 °F 75% 29.43 in - West 12.7 mph 17.3 mph N/A   Unknown
7:32 AM 11.3 °F -3.6 °F 4.8 °F 75% 29.44 in - West 12.7 mph 18.4 mph N/A   Overcast
7:52 AM 11.3 °F -2.9 °F 4.8 °F 75% 29.45 in - West 11.5 mph 16.1 mph N/A   Overcast
8:12 AM 11.3 °F -1.3 °F 4.6 °F 75% 29.46 in - West 9.2 mph 19.6 mph N/A   Overcast
8:32 AM 10.9 °F 2.9 °F 4.1 °F 74% 29.47 in - West 4.6 mph 16.1 mph N/A   Overcast
8:52 AM 10.4 °F -2.4 °F 3.7 °F 74% 29.48 in - West 9.2 mph 18.4 mph N/A   Overcast
9:12 AM 10.4 °F -1.5 °F 3.9 °F 75% 29.48 in - West 8.1 mph 19.6 mph N/A   Overcast
9:32 AM 11.1 °F 0.4 °F 4.1 °F 73% 29.49 in - WNW 6.9 mph - N/A   Overcast
9:52 AM 11.3 °F -4.3 °F 4.5 °F 74% 29.49 in - West 13.8 mph 18.4 mph N/A   Overcast
10:12 AM 11.3 °F -3.6 °F 4.6 °F 75% 29.50 in - West 12.7 mph 20.7 mph N/A   Overcast
10:32 AM 12.2 °F -2.5 °F 5.0 °F 73% 29.50 in - West 12.7 mph 19.6 mph N/A   Overcast
10:52 AM 12.7 °F 0.4 °F 5.7 °F 74% 29.50 in - West 9.2 mph 21.9 mph N/A   Scattered Clouds
11:12 AM 13.5 °F -0.9 °F 6.1 °F 72% 29.51 in - West 12.7 mph 19.6 mph N/A   Clear
11:32 AM 13.8 °F -1.7 °F 6.3 °F 72% 29.52 in - West 15.0 mph 24.2 mph N/A   Clear
11:52 AM 14.4 °F 0.2 °F 7.0 °F 73% 29.52 in - West 12.7 mph 19.6 mph N/A   Clear
12:12 PM 14.5 °F -1.8 °F 7.0 °F 72% 29.52 in - West 17.3 mph 21.9 mph N/A   Clear
12:32 PM 14.9 °F -0.3 °F 7.5 °F 73% 29.53 in - West 15.0 mph 19.6 mph N/A   Scattered Clouds
12:52 PM 15.3 °F 2.0 °F 7.7 °F 72% 29.54 in - West 11.5 mph 18.4 mph N/A   Scattered Clouds
1:12 PM 15.4 °F -0.1 °F 7.7 °F 71% 29.55 in - West 16.1 mph 24.2 mph N/A   Scattered Clouds
1:32 PM 15.8 °F 1.4 °F 7.7 °F 70% 29.55 in - West 13.8 mph 21.9 mph N/A   Scattered Clouds
1:52 PM 16.3 °F 0.1 °F 8.2 °F 70% 29.56 in - West 18.4 mph 27.6 mph N/A   Clear
2:12 PM 16.7 °F 2.6 °F 8.6 °F 70% 29.56 in - West 13.8 mph 25.3 mph N/A   Clear
2:32 PM 17.4 °F 3.5 °F 9.1 °F 70% 29.57 in - West 13.8 mph 21.9 mph N/A   Clear
2:52 PM 17.6 °F 3.7 °F 8.8 °F 68% 29.58 in - West 13.8 mph 20.7 mph N/A   Clear
3:12 PM 18.3 °F 4.6 °F 9.9 °F 70% 29.59 in - West 13.8 mph 21.9 mph N/A   Clear
3:32 PM 18.3 °F 3.6 °F 9.9 °F 70% 29.60 in - West 16.1 mph 21.9 mph N/A   Clear
3:52 PM 18.5 °F 3.8 °F 10.0 °F 70% 29.61 in - West 16.1 mph 23.0 mph N/A   Clear
4:12 PM 19.0 °F 4.0 °F 10.4 °F 69% 29.62 in - West 17.3 mph 25.3 mph N/A   Clear
4:32 PM 19.4 °F 4.1 °F 10.8 °F 69% 29.62 in - West 18.4 mph 25.3 mph N/A   Clear
4:52 PM 19.4 °F 5.0 °F 10.6 °F 69% 29.63 in - West 16.1 mph 23.0 mph N/A   Clear
5:12 PM 19.2 °F 4.7 °F 10.4 °F 69% 29.64 in - West 16.1 mph 24.2 mph N/A   Clear
5:32 PM 19.0 °F 4.0 °F 10.4 °F 69% 29.65 in - West 17.3 mph 23.0 mph N/A   Clear
5:52 PM 18.9 °F 4.8 °F 10.4 °F 70% 29.66 in - West 15.0 mph 26.5 mph N/A   Clear
6:12 PM 18.5 °F 5.5 °F 10.4 °F 71% 29.67 in - West 12.7 mph 20.7 mph N/A   Clear
6:32 PM 18.5 °F 6.8 °F 10.4 °F 71% 29.68 in - West 10.4 mph 24.2 mph N/A   Clear
6:52 PM 18.3 °F 4.6 °F 10.4 °F 71% 29.69 in - West 13.8 mph 23.0 mph N/A   Clear
7:12 PM 18.5 °F 6.1 °F 10.4 °F 71% 29.70 in - West 11.5 mph 19.6 mph N/A   Clear
7:32 PM 18.5 °F 4.3 °F 10.4 °F 71% 29.70 in - West 15.0 mph 19.6 mph N/A   Clear
7:52 PM 18.5 °F 5.5 °F 10.4 °F 71% 29.70 in - West 12.7 mph 23.0 mph N/A   Clear
8:12 PM 18.5 °F 5.5 °F 10.2 °F 70% 29.71 in - West 12.7 mph 20.7 mph N/A   Clear
8:32 PM 18.3 °F 4.6 °F 10.2 °F 71% 29.72 in - West 13.8 mph 18.4 mph N/A   Clear
8:52 PM 18.5 °F 6.8 °F 10.2 °F 70% 29.72 in - West 10.4 mph 21.9 mph N/A   Clear
9:12 PM 18.3 °F 3.6 °F 10.0 °F 70% 29.73 in - West 16.1 mph 21.9 mph N/A   Clear
9:32 PM 18.1 °F 4.4 °F 9.9 °F 70% 29.73 in - West 13.8 mph 19.6 mph N/A   Clear
9:52 PM 18.0 °F 4.8 °F 9.3 °F 69% 29.74 in - West 12.7 mph 20.7 mph N/A   Clear
10:12 PM 17.6 °F 5.7 °F 9.3 °F 70% 29.75 in - West 10.4 mph 17.3 mph N/A   Clear
10:32 PM 17.4 °F 4.1 °F 8.6 °F 68% 29.75 in - West 12.7 mph 18.4 mph N/A   Clear
10:52 PM 17.1 °F 3.0 °F 8.6 °F 69% 29.75 in - West 13.8 mph - N/A   Clear
11:12 PM 16.5 °F 3.0 °F 8.4 °F 70% 29.75 in - West 12.7 mph - N/A   Clear
11:32 PM 16.3 °F 5.7 °F 8.4 °F 71% 29.75 in - West 8.1 mph 16.1 mph N/A   Clear
11:52 PM 15.8 °F 3.4 °F 7.7 °F 70% 29.76 in - West 10.4 mph 18.4 mph N/A   Clear